Regional Weather Roundup
Issued by NWS

Home | Current Version | Previous Version | Graphics & Text | Print | Product List | Glossary On
Versions: 1 2 3 4 5 6 7 8 9 10 11 12 13 14 15 16 17 18 19 20 21 22 23 24 25 26 27 28 29 30 31 32 33 34 35 36 37 38 39 40 41 42 43 44 45 46 47 48 49 50
366
ASUS43 KDTX 312310
RWRMI
MICHIGAN HOURLY REGIONAL WEATHER ROUNDUP
NATIONAL WEATHER SERVICE DETROIT/PONTIAC MI
700 PM EDT TUE MAY 31 2016

NOTE: "FAIR" INDICATES FEW OR NO CLOUDS BELOW 12,000 FEET WITH NO
SIGNIFICANT WEATHER AND/OR OBSTRUCTION TO VISIBILITY.

MIZ047>049-052>055-059>063-066>070-074>076-081>083-010000-
SOUTHEAST LOWER MICHIGAN

CITY           SKY/WX    TMP DP  RH WIND       PRES   REMARKS
ADRIAN         MOSUNNY   81  47  30 SE12      30.02F
ALMA           MOSUNNY   77  54  44 E13G20    30.02F
ANN ARBOR      SUNNY     78  47  33 SE9       30.02F
BAD AXE        SUNNY     63  49  60 NE6       30.10S
CARO           MOSUNNY   73  53  50 E6        30.05S
DETROIT CITY   PTSUNNY   75  51  43 E9        30.05S
DETROIT        PTSUNNY   79  43  27 NE10G17   30.04F
FLINT          SUNNY     83  52  34 VRB7      30.03F
GROSSE ILE     CLOUDY    77  52  41 NE6       30.03S
HILLSDALE      SUNNY     80  34  18 SE12      30.02S
HOWELL         SUNNY     81  46  29 E5        30.02F

CITY           SKY/WX    TMP DP  RH WIND       PRES   REMARKS
JACKSON        SUNNY     80  44  27 SE12      30.02S
LAMBERTVILLE   MOSUNNY   77  53  43 E6        30.03S
LANSING        PTSUNNY   78  53  41 E7        30.01F
LAPEER         FAIR      74  54  49 E6        30.06S
MASON          MOSUNNY   79  49  34 E5        30.01F
MONROE         MOSUNNY   76  55  46 E5        30.03R
MT. CLEMENS    PTSUNNY   71  56  57 E12       30.04S
PONTIAC        PTSUNNY   78  48  34 E9        30.03F
PORT HOPE        N/A     57  49  74 NE9       30.09F
PORT HURON     MOSUNNY   61  52  72 NE8       30.08F
TRI CITIES     MOSUNNY   70  54  56 NE16      30.06S
MIDLAND        FAIR      67  52  58 E15       30.05F
TROY           MOSUNNY   80  46  30 E10       30.06S
SAGINAW HB     MOSUNNY   73  50  43 NE9       30.04F HAZE
$$
MIZ043>046-050>051-056>058-064>065-071>073-077>080-010000-
SOUTHWEST LOWER MICHIGAN

CITY           SKY/WX    TMP DP  RH WIND       PRES   REMARKS
BATTLE CREEK   MOSUNNY   80  47  31 E9        30.00F
BENTON HARBOR  CLOUDY    69  56  62 W12G23    29.99R
BIG RAPIDS     SUNNY     78  48  34 SE13      30.00F
COLDWATER      SUNNY     79  46  31 E14       29.99S
FREMONT        FAIR      81  48  31 SE7       29.98S
HOLLAND        SUNNY     84  47  27 SE10      29.97F
GRAND RAPIDS   MOSUNNY   84  48  28 SE12      29.99S
IONIA          FAIR      80  46  29 SE8       29.99F
KALAMAZOO      MOSUNNY   81  48  31 E5        29.98F
LUDINGTON      MOSUNNY   72  55  55 NW8       30.00S
MARSHALL       SUNNY     81  43  26 E6        29.99F
MOUNT PLEASANT SUNNY     76  56  49 E9        30.02S
MUSKEGON       MOSUNNY   79  52  38 VRB3      29.97S
SOUTH HAVEN    CLOUDY    81  48  31 CALM      29.97S
$$
MIZ016>042-010000-
NORTHERN LOWER MICHIGAN

CITY           SKY/WX    TMP DP  RH WIND       PRES   REMARKS
ALPENA         SUNNY     63  46  54 SE9       30.11S
BEAVER ISLAND  SUNNY     65  48  55 E13       30.03F
BELLAIRE       SUNNY     80  45  28 NE7       29.99F
CADILLAC       MOSUNNY   77  52  41 SE8       30.01F
CHARLEVOIX     SUNNY     73  49  42 E10       30.04F
FRANKFORT      SUNNY     73  55  52 N6        29.98F
GAYLORD        SUNNY     74  46  36 E8        30.05S
GRAYLING       PTSUNNY   76  54  46 SE14G21   30.05R
HARBOR SPRINGS SUNNY     71  49  46 NE13G21   30.04F
HOUGHTON LAKE  SUNNY     73  54  51 SE9       30.05S
MANISTEE       MOSUNNY   73  50  43 NW8       30.00S
OSCODA         MOSUNNY   60  44  55 E5        30.11S
PELLSTON       SUNNY     71  45  39 E14       30.06F
ROGERS CITY    SUNNY     62  47  58 E7        30.10F
TRAVERSE CITY  MOSUNNY   73  52  47 W5        29.97F
$$
MIZ007>008-015-010000-
EASTERN UPPER MICHIGAN

CITY           SKY/WX    TMP DP  RH WIND       PRES   REMARKS
KINROSS          N/A     68  46  45 SE15      30.07F
MACKINAC ISLAN SUNNY     62  46  56 E12G17    30.08S
NEWBERRY       SUNNY     68  47  46 SE14      30.04S
S. S. MARIE    SUNNY     69  48  47 SE9       30.07S
MUNISING         N/A     55  46  71 N3        29.99F
$$
MIZ004>006-011>014-085-010000-
CENTRAL UPPER MICHIGAN

CITY           SKY/WX    TMP DP  RH WIND       PRES   REMARKS
MANISTIQUE     MOSUNNY   67  45  44 E13       30.02F
ESCANABA         N/A    N/A N/A N/A E7        30.00F
MENOMINEE      MOSUNNY   60  50  69 E10       29.99
SAWYER-GWINN   MOSUNNY   68  43  40 S14G21    30.00F
$$
MIZ001>003-009>011-084-010000-
WESTERN UPPER MICHIGAN

CITY           SKY/WX    TMP DP  RH WIND       PRES   REMARKS
IRON MOUNTAIN  CLOUDY    68  44  42 SE10G18   29.97F
HOUGHTON       PTSUNNY   47  38  71 E16G23    29.95F
COPPER HARBOR    N/A     55  40  56 S9G18     29.96F
IRONWOOD       CLOUDY    57  55  94 W7        29.89R
$$

ABBREVIATIONS USED IN REMARKS
   TC - TEMPERATURE IN CELSIUS
  WCI - WIND CHILL INDEX
   HX - HEAT INDEX
  VSB - VISIBILITY





USA.gov is the U.S. government's official web portal to all federal, state and local government web resources and services.